Location: Brummen
(52.0898°N, 6.1565°E)
Time: 06:09:42
(UTC+00:00)

Daily predictions for brighter satellites

Satellite Brightness Start Highest point End
(mag) Time Altitude Azimuth Time Altitude Azimuth Time Altitude Azimuth
NOSS 3-4 (A) 4.0 20:17:37 10° NW 20:24:14 74° SW 20:32:06 10° SSE
NOSS 3-4 (C) 4.0 20:17:38 10° NW 20:24:18 74° SW 20:32:07 10° SSE
Cosmos 1634 Rocket 4.5 20:21:02 10° NNW 20:27:09 65° W 20:33:13 10° S
SPOT 3 Rocket 3.8 20:24:35 10° SSE 20:29:41 59° ENE 20:34:49 10° N
Cosmos 1943 Rocket 4.2 20:24:56 10° WSW 20:29:59 34° NW 20:35:06 10° NNE
Sich 1 Rocket 3.8 20:27:51 10° N 20:32:25 64° ENE 20:36:55 10° SSE
Spot 2 Rocket 3.6 20:28:49 10° SSE 20:33:55 88° W 20:39:02 10° NNW
Cosmos 1818 3.7 20:31:40 10° NW 20:37:07 75° SW 20:42:32 10° SSE
Cosmos 1486 Rocket 4.2 20:32:09 10° SSW 20:37:26 85° WNW 20:42:47 10° NNE
ATLAS 5 CENTAUR R/B 4.1 20:35:58 10° WNW 20:38:24 18° NNW 20:41:05 10° NNE
IRS-1C Rocket 4.2 20:33:25 10° SSE 20:38:40 78° ENE 20:43:57 10° NNW
Cosmos 1833 4.3 20:32:59 10° NNW 20:38:45 83° ENE 20:44:24 10° SSE
Cosmos 1674 Rocket 3.6 20:35:20 10° S 20:39:43 69° E 20:44:09 10° NNE
Cosmos 2279 Rocket 4.3 20:37:45 10° NNW 20:43:58 70° W 20:50:10 10° S
ERS-1 Rocket 4.0 20:40:37 10° S 20:45:23 45° W 20:50:12 10° NNW
USA 245 3.4 20:42:04 10° S 20:46:10 67° WSW 20:49:28 10° NNW
Meteor 1-21 Rocket 4.2 20:44:04 10° S 20:49:44 86° E 20:55:20 10° NNE
Cosmos 2297 3.7 20:44:08 10° SSW 20:49:46 79° ESE 20:55:29 10° NNE
Cosmos 1812 2.5 20:47:43 10° N 20:50:49 50° ENE 20:53:43 11° SSE
PSLV R/B 3.7 20:49:20 11° SE 20:52:17 48° ENE 20:55:19 10° N
Okean-O 3.8 20:48:30 10° SSW 20:52:36 39° W 20:56:45 10° NNW
Meteor 1-11 4.4 20:48:04 10° S 20:53:46 60° E 20:59:27 10° NNE
Cosmos 1378 Rocket 3.9 20:51:30 10° SSW 20:55:46 65° WNW 21:00:02 10° N
Meteor 2-1 Rocket 4.4 20:50:03 10° N 20:55:55 72° ENE 21:01:37 10° SSE
Cosmos 1656 Rocket 4.2 20:50:29 10° SW 20:55:59 63° NW 21:01:27 10° NNE
ATLAS 2AS CENTAUR R/B 4.4 20:50:03 10° NW 20:56:09 32° N 21:02:08 10° ENE
BlueWalker 3 2.0 20:54:27 10° W 20:58:08 76° N 21:01:48 10° E
Meteor 2-12 Rocket 4.5 20:52:22 10° S 20:58:30 77° E 21:04:39 10° NNE
Okean O Rocket 3.5 20:55:43 10° SSW 20:59:27 27° W 21:03:14 10° NW
Cosmos 990 Rocket 4.1 20:55:10 10° S 21:00:12 56° ESE 21:05:18 10° NNE
Cosmos 1025 Rocket 3.0 20:55:56 10° S 21:00:14 71° E 21:04:36 10° NNE
RESURS DK-1 3.7 21:09:55 10° NNW 21:13:27 29° NE 21:16:59 10° ESE
DNEPR-1 R/B 3.5 21:16:45 10° NW 21:21:01 85° NE 21:24:32 15° SE
USA 215 3.7 21:15:20 10° E 21:21:47 63° N 21:28:15 10° WNW
Cosmos 2369 Rocket 2.7 21:19:25 10° SW 21:25:05 66° NW 21:30:46 10° NNE
Cosmos 1400 Rocket 4.3 21:22:36 10° N 21:25:45 24° ENE 21:28:20 13° ESE
ASTEX 1 3.7 21:21:15 10° N 21:26:05 65° W 21:30:52 10° SSW
Meteor 1-27 4.4 21:23:22 10° N 21:29:08 64° ENE 21:33:45 16° SSE
Cosmos 1354 Rocket 4.4 21:23:59 10° SW 21:29:12 69° WNW 21:34:26 10° NNE
Cosmos 2297 Rocket 3.1 21:28:57 10° NNW 21:34:20 42° NE 21:39:27 11° ESE
ISS -3.7 21:32:04 10° W 21:35:22 58° SSW 21:37:41 18° ESE
COBE Rocket 3.7 21:31:19 10° NNE 21:36:00 81° ESE 21:40:36 10° S
Cosmos 1937 Rocket 4.2 21:34:19 16° SSE 21:37:47 35° ESE 21:42:24 10° NE
Ariane Rocket 3.8 21:33:11 10° S 21:38:02 46° W 21:42:54 10° NNW
Cosmos 1680 Rocket 4.0 21:33:11 10° NNW 21:38:22 51° ENE 21:42:31 15° SE
Cosmos 2098 Rocket 2.7 21:35:29 10° N 21:38:35 52° ENE 21:40:46 21° SSE
CZ-4C R/B 1.8 21:42:23 10° SW 21:46:49 76° SE 21:52:32 10° NE
ALOS 2 4.2 21:44:36 12° ESE 21:47:49 25° ENE 21:51:24 10° N
Cosmos 1627 Rocket 4.4 21:42:35 12° S 21:48:24 79° E 21:54:33 10° NNE
Cosmos 923 Rocket 4.0 21:44:33 10° NNW 21:49:47 78° ENE 21:53:32 19° SSE
Cosmos 1515 3.9 21:47:27 10° NNW 21:49:53 36° W 21:51:23 18° SSW
Lacrosse 5 rocket 2.4 21:47:22 10° WNW 21:51:07 43° N 21:54:54 10° E
Cosmos 44 3.0 21:47:32 10° SW 21:51:52 88° NW 21:56:21 10° NE
Cosmos 1975 Rocket 3.0 21:53:28 16° S 21:56:56 86° E 22:01:15 10° NNE
MetOp-A 4.0 21:55:24 19° SE 21:57:40 40° ENE 22:01:15 10° N
Cosmos 2228 2.9 21:56:14 10° N 22:00:28 90° WSW 22:03:10 22° S
Cosmos 1455 Rocket 4.1 21:59:33 10° NNW 22:03:34 39° W 22:07:03 13° SSW
Cosmos 2227 Rocket 3.4 22:01:45 10° NNW 22:07:02 37° NE 22:12:16 10° ESE
Cosmos 2285 Rocket 4.2 22:02:25 10° SSW 22:08:48 75° WNW 22:15:16 10° NNE
Meteor 2-20 4.5 22:03:15 10° N 22:09:27 89° W 22:13:55 20° S
Cosmos 1867 3.6 22:04:04 10° SSW 22:09:27 66° SE 22:14:53 10° NE
Gbstr 26 Del rocket 3.7 22:04:23 10° W 22:09:30 65° SSW 22:15:20 12° ESE
BREEZE M DEB (TANK) 3.4 22:07:53 10° SW 22:10:09 24° SSW 22:10:09 24° SSW
Cosmos 494 Rocket 4.4 22:05:52 10° NNW 22:11:03 56° ENE 22:14:40 19° SE
BREEZE-M DEB (TANK) 3.0 22:08:19 10° W 22:16:42 65° S 22:19:40 10° E
Cosmos 2026 Rocket 4.3 22:12:20 10° SSW 22:18:22 65° WNW 22:24:25 10° N
CZ-2C R/B 4.0 22:16:20 10° NNE 22:20:59 56° E 22:23:39 24° S
Cosmos 1898 Rocket 3.5 22:16:18 11° SSW 22:21:25 85° WNW 22:26:43 10° NNE
ATLAS 5 CENTAUR R/B 4.2 22:19:53 10° NNW 22:22:32 18° NNE 22:25:31 10° NE
Spot 4 4.0 22:21:20 23° SE 22:24:18 64° ENE 22:29:05 10° N
Landsat 5 4.1 22:25:07 10° NNE 22:28:36 33° E 22:29:50 26° SE
Cosmos 1553 Rocket 4.1 22:25:14 10° NNW 22:31:28 74° W 22:35:55 21° S
ARIANE 5 R/B 2.6 22:30:39 26° SSE 22:33:08 84° WSW 22:37:35 10° NNW
BlueWalker 3 2.0 22:32:13 10° WNW 22:35:46 49° SSW 22:36:56 34° SSE
SL-08 ROCKET BODY 4.3 22:36:29 22° S 22:40:28 78° E 22:46:22 10° NNE
DELTA 2 DEB (DPAF) 4.5 22:40:53 10° N 22:44:42 51° WNW 22:47:30 17° SW
CZ-4C R/B 3.1 22:41:04 10° NNE 22:44:43 80° WNW 22:46:38 27° SSW
Cosmos 1933 4.2 22:42:18 10° N 22:45:57 37° ENE 22:47:44 23° ESE
ATLAS 2AS CENTAUR R/B 3.3 22:41:46 10° NW 22:48:28 54° NNE 22:55:02 10° ESE
SOZ 3.9 22:47:58 10° W 22:50:07 84° S 22:50:38 47° ESE
Cosmos 1536 Rocket 3.5 22:48:20 28° S 22:50:36 83° E 22:55:03 10° NNE
Cosmos 1417 Rocket 4.4 22:44:38 10° N 22:50:49 86° W 22:54:39 24° S
RESURS DK-1 3.0 22:47:17 10° NW 22:51:02 41° WSW 22:52:29 29° SSW
Cosmos 1656 3.6 22:47:10 18° SSW 22:51:25 82° ESE 22:56:58 10° NNE
S3M 4.0 22:46:06 10° N 22:52:28 85° E 22:56:23 25° SSE
Cosmos 2263 Rocket 3.2 22:49:13 10° NNW 22:54:36 42° NE 22:59:46 11° ESE
Cosmos 1606 Rocket 3.5 22:52:22 10° N 22:56:46 81° E 22:58:50 31° SSE
Cosmos 1400 Rocket 3.8 22:57:55 10° NNW 23:01:25 35° W 23:03:02 24° SW
Cosmos 2058 2.7 23:01:15 33° S 23:02:59 89° NW 23:06:57 10° N
USA 215 3.2 22:58:11 10° ESE 23:04:45 79° SSW 23:11:20 10° WNW
Cosmos 1782 2.9 23:04:30 10° NNW 23:08:07 58° W 23:09:26 35° SSW
Cosmos 1602 3.7 23:07:46 39° SE 23:08:25 46° E 23:11:31 10° NNE
ISS -1.7 23:09:13 10° W 23:10:32 16° WSW 23:10:32 16° WSW
Cosmos 1655 Rocket 4.2 23:09:38 25° SSE 23:13:26 62° E 23:19:43 10° NNE
Cosmos 2297 Rocket 2.7 23:13:05 10° NW 23:18:26 45° WSW 23:21:13 26° SSW
Cosmos 1862 3.0 23:18:17 40° S 23:19:29 75° E 23:23:09 10° NNE
Cosmos 1937 Rocket 4.5 23:14:43 10° SW 23:19:35 43° NW 23:24:29 10° NNE
Cosmos 2219 3.9 23:14:12 10° NNW 23:19:46 51° NE 23:24:44 13° SE
Cosmos 1726 Rocket 3.7 23:15:22 10° NNW 23:19:59 82° W 23:22:11 31° S
Cosmos 2058 Rocket 3.4 23:17:21 10° N 23:21:46 57° ENE 23:23:59 27° SE
PSLV R/B 3.7 23:17:32 10° NNE 23:22:14 79° ESE 23:24:32 30° S
ALOS 2 3.1 23:22:00 29° SSW 23:23:55 48° W 23:28:12 10° NNW
Lacrosse 5 rocket 1.0 23:24:49 10° WNW 23:28:46 82° SSW 23:31:05 24° SE
Cosmos 1980 Rocket 3.1 23:28:23 24° SSE 23:30:44 33° ESE 23:35:43 10° NE
Cosmos 468 4.5 23:27:02 10° NNW 23:32:24 89° WSW 23:35:26 27° SSE
Cosmos 1356 Rocket 3.3 23:29:39 10° NNW 23:33:42 81° W 23:35:17 36° S
Cosmos 1697 Rocket 2.7 23:32:02 27° SSW 23:35:13 69° ESE 23:40:52 10° NE
CZ-4C R/B 3.7 23:31:03 10° W 23:35:39 36° NNW 23:41:29 10° NE
Cosmos 2360 4.4 23:33:06 17° SW 23:37:34 72° WNW 23:43:17 10° NNE
Spot 1 4.2 23:35:00 10° NNE 23:39:49 88° ESE 23:42:05 30° SSW
CZ-2C R/B 3.6 23:36:52 15° SE 23:41:13 46° ENE 23:46:33 10° N
Cosmos 1892 Rocket 3.4 23:39:40 34° S 23:41:32 90° N 23:45:52 10° N
PSLV R/B 3.9 23:38:19 10° NNE 23:42:16 66° ESE 23:43:44 36° S
Cosmos 1441 Rocket 2.8 23:44:49 45° S 23:45:47 80° ESE 23:49:15 10° NNE
GEOS 3 Rocket 3.6 23:43:02 10° NE 23:48:19 74° SE 23:51:46 22° SW
Cosmos 1844 Rocket 4.5 23:44:54 10° NNW 23:49:50 30° NE 23:54:44 10° ESE
Meteor 2-3 Rocket 3.8 23:46:44 27° S 23:50:02 81° E 23:55:49 10° NNE
Cosmos 1626 Rocket 4.3 23:49:13 26° SE 23:51:08 41° E 23:55:18 10° NNE
Cosmos 2227 Rocket 2.5 23:45:47 10° NW 23:51:18 53° WSW 23:54:07 28° S
Geosat 4.4 23:50:12 10° NE 23:55:05 48° ESE 23:57:21 29° S
